Location: Killam
(52.7910°N, 111.8608°W)
Time: 02:20:17
(UTC+00:00)

Oscar 11 - Pass Details

Date: 22 March 2026
Orbit: 590 x 602 km, 97.8° (Epoch: 13 April)

Event Time Altitude Azimuth Distance (km) Brightness Sun altitude
Rises 10:45:25 0° 18° (NNE) 2,839 11.3 -23.3°
Reaches altitude 10° 10:47:39 10° 24° (NNE) 1,932 10.4 -23.1°
Maximum altitude 10:51:43 47° 99° (E) 787 7.8 -22.6°
Enters shadow 10:53:29 29° 156° (SSE) 1,099 8.2 -22.3°
